デ・ヴィコ彗星

122P/de Vico (1995)

English version
Home page
Updated on November 11, 2005

---------------------------------------------------------------------

・ プロフィール

符号 122P/1995 S1
再発見日 1995年9月17日
再発見光度 7.0等
再発見者 中村裕二 (三重), 宇都宮章吾 (熊本), 田中政明 (福島), D. E. Machholz (Colfax, CA), 関勉 (高知)

・ 軌道要素

   The following improved orbital elements,  by Kenji Muraoka, are 
  from 211 observations 1995 Sept. 18 to 1996 June 25, perturbations 
  by 9 Planets, Moon and 5 minor planets were taken into account. 
   The mean residual is +/- 0.97 arc seconds.

      Epoch  =  1995 Oct. 10.0  TT       JDT = 2450000.5
          T  =  1995 Oct.  6.02381       +/- 0.00002 (m.e.) TT
       Peri. =   12.97682                +/- 0.00004
       Node  =   79.61807                +/- 0.00003   (2000.0)
       Incl. =   85.39119                +/- 0.00002
          q  =    0.6588922              +/- 0.0000001 AU
          e  =    0.9627360              +/- 0.0000014
          a  =   17.6817347              +/- 0.0000364 AU
          n  =    0.01325613             +/- 0.00000004
          P  =   74.351                  +/- 0.0002297  years

・ 星図

・ 1995年 5月 3日〜1995年10月20日
・ 1995年 9月20日〜1996年 5月 7日

・ 光度変化

        m1 = 8.5 + 5 logΔ + 18.0 log r

---------------------------------------------------------------------

軌道要素は村岡健治氏の計算によるものです。
星図は StellaNavigator Ver.2.0 for Windows (アストロアーツ 編著 / アスキー出版局刊) で作成したものです。
光度グラフはComet for Windowsで作成したものです。

---------------------------------------------------------------------

Copyright(C) Seiichi Yoshida (comet@aerith.net). All rights reserved.